Location: Newark
(45.2500°N, 7.5833°E)
Time: 03:27:57
(UTC+00:00)

Tiros 1 despin weight - Pass Details

Date: 26 January 2020
Orbit: 594 x 642 km, 48.2° (Epoch: 17 February)

Event Time Altitude Azimuth Distance (km) Brightness Sun altitude
Rises 09:54:21 0° 216° (SW) 2,841 ? 21.4°
Reaches altitude 10° 09:56:47 10° 206° (SSW) 1,948 ? 21.6°
Maximum altitude 10:00:46 32° 143° (SE) 1,055 ? 21.9°
Drops below altitude 10° 10:04:49 10° 81° (E) 1,984 ? 22.2°
Sets 10:07:19 0° 71° (ENE) 2,902 ? 22.4°
